Regional Weather Roundup
Issued by NWS

Home | Current Version | Previous Version | Graphics & Text | Print | Product List | Glossary On
Versions: 1 2 3 4 5 6 7 8 9 10 11 12 13 14 15 16 17 18 19 20 21 22 23 24 25 26 27 28 29 30 31 32 33 34 35 36 37 38 39 40 41 42 43 44 45 46 47 48 49 50
000
ASUS43 KFSD 260002
RWRSD

WEATHER ROUNDUP FOR SOUTH DAKOTA
NATIONAL WEATHER SERVICE SIOUX FALLS SD
600 PM CST SUN FEB 25 2018

NOTE: "FAIR" INDICATES FEW OR NO CLOUDS BELOW 12,000 FEET WITH NO
SIGNIFICANT WEATHER AND/OR OBSTRUCTIONS TO VISIBILITY.


SDZ001>005-009-010-012>017-260100-
NORTHWEST AND NORTH CENTRAL SOUTH DAKOTA

CITY           SKY/WX    TMP DP  RH WIND       PRES   REMARKS
BUFFALO          N/A     24  14  65 SW12      29.67S WCI  13
FAITH            N/A     24  19  81 S12       29.77S WCI  13
MOBRIDGE       CLEAR     28  18  66 SE7       29.77S WCI  21
$$

SDZ012>016-024>037-041>051-057-063-072>074-260100-
SOUTHWEST AND SOUTH CENTRAL SOUTH DAKOTA

CITY           SKY/WX    TMP DP  RH WIND       PRES   REMARKS
RAPID CTY ARPT CLEAR     31  19  61 CALM      29.79R
PIERRE         PTCLDY    29  20  69 SW9       29.85R WCI  20
CUSTER         CLEAR     23   6  48 W14G23    29.75R WCI  11
ELLSWORTH AFB  CLEAR     29  20  68 CALM      29.78S
PHILIP         CLEAR     26  18  71 SW8       29.85R WCI  18
PINE RIDGE     CLEAR    N/A N/A N/A MISG      29.86R
SPEARFISH        N/A     32   5  32 SW14      29.76S WCI  22
WINNER         FAIR      32  21  64 SW10      29.90R WCI  24
$$

SDZ004>011-016>023-039-040-260100-
NORTHEAST SOUTH DAKOTA

CITY           SKY/WX    TMP DP  RH WIND       PRES   REMARKS
ABERDEEN       CLEAR     19  14  81 S10       29.84S WCI   7
WATERTOWN      CLEAR     21  17  84 SW10      29.84R WCI  10
BROOKINGS      CLEAR     25  18  74 SW3       29.89
SISSETON         N/A     26  18  71 W21       29.81R WCI  12
$$

SDZ017-020-022-023-036>040-048>070-260100-
SOUTHEAST SOUTH DAKOTA

CITY           SKY/WX    TMP DP  RH WIND       PRES   REMARKS
SIOUX FALLS    CLEAR     30  19  63 SW5       29.94R WCI  25
HURON          CLEAR     30  19  63 S8        29.89R WCI  22
CHAMBERLAIN    CLEAR     32  22  67 SW9       29.89S WCI  24
MITCHELL       CLEAR     31  20  63 S8        29.92S WCI  23
$$

ABBREVIATIONS USED IN REMARKS
   TC - TEMPERATURE IN CELSIUS
  WCI - WIND CHILL INDEX
   HX - HEAT INDEX
  VSB - VISIBILITY





USA.gov is the U.S. government's official web portal to all federal, state and local government web resources and services.